Location: *
(46.1866°S, 178.5290°W)
Time: 09:29:45
(UTC+00:00)

Cosmos 1461 - Pass Details

Date: 30 September 2021
Orbit: 520 x 642 km, 65.0° (Epoch: 20 October)

Event Time Altitude Azimuth Distance (km) Brightness Sun altitude
Rises 14:14:49 0° 210° (SSW) 2,904 6.7 -30.6°
Reaches altitude 10° 14:18:42 10° 176° (S) 2,024 6.2 -30.1°
Maximum altitude 14:20:18 12° 155° (SSE) 1,927 6.3 -29.9°
Drops below altitude 10° 14:21:55 10° 135° (SE) 2,040 6.6 -29.7°
Sets 14:25:52 0° 102° (ESE) 2,962 7.4 -29.2°
